#timestamp,LO_Frequency,Hit,StdDev 
1670266815.3,286046999.8,N
1670266835.1,286047000.7,N
1670266855.8,286047001.1,N
1670266875.7,286046998.5,N
1670266895.5,286047000.7,N
1670266915.4,286046999.9,N
1670266935.2,286047002.4,N
1670266955.0,286047000.4,N
1670266955.9,286047000.4,N
1670266975.8,286046998.9,N
1670266995.6,286046999.4,N
1670267015.5,286046999.0,N
1670267035.3,286046999.3,N
1670267055.1,286046999.3,N
1670267075.9,286046998.5,N
1670267095.7,286046999.4,N
1670267115.5,286046999.0,N
1670267135.4,286046999.2,N
1670267155.2,286046998.4,N
1670267175.1,286047001.1,N
1670267176.0,286047001.1,N
1670267195.8,286047000.6,N
1670267215.6,286047000.1,N
1670267235.5,286047001.0,N
1670267255.3,286047001.0,N
1670267275.2,286047001.0,N
1670267295.9,286047000.6,N
1670267315.7,286047000.6,N
1670267335.6,286047002.8,N
1670267355.4,286046998.3,N
1670267375.2,286046998.9,N
1670267395.1,286046998.9,N
1670267396.0,286046998.9,N
1670267415.8,286046999.6,N
1670267435.7,286046999.2,N
1670267455.5,286046998.8,N
1670267475.3,286046998.6,N
1670267495.2,286047001.0,N
1670267515.0,286047001.1,N
1670267515.9,286047001.1,N
1670267535.8,286047001.0,N
1670267555.6,286047000.8,N
1670267575.4,286046998.9,N
1670267595.3,286046998.9,N
1670267615.1,286046998.1,N
1670267635.8,286046998.4,N
1670267655.7,286046998.5,N
1670267675.5,286047001.0,N
1670267695.4,286046999.4,N
1670267715.2,286046999.0,N
1670267735.0,286046999.2,N
1670267735.9,286046999.2,N
1670267755.8,286046999.0,N
1670267775.6,286047001.1,N
1670267795.5,286046998.4,N
1670267815.3,286046998.4,N
1670267835.1,286047001.0,N
1670267855.9,286047000.8,N
1670267875.7,286046999.7,N
1670267895.5,286046999.9,N
1670267915.4,286047001.2,N
1670267935.2,286046999.4,N
1670267955.1,286046998.8,N
1670267956.0,286046998.8,N
1670267975.8,286046999.2,N
1670267995.6,286046998.9,N
1670268015.5,286046997.5,N
1670268035.3,286046997.8,N
1670268055.2,286046996.7,N
1670268075.9,286046996.7,N
1670268095.7,286046997.1,N
1670268115.6,286046999.3,N
1670268135.4,286046998.3,N
1670268155.2,286046997.0,N
1670268175.1,286046998.3,N
1670268176.0,286046998.3,N
1670268195.8,286046998.3,N
1670268215.7,286047000.0,N
1670268235.5,286046998.5,N
1670268255.3,286046998.6,N
1670268275.2,286046998.3,N
1670268295.0,286047000.7,N
1670268295.9,286047000.7,N
1670268315.8,286046998.1,N
1670268335.6,286047000.9,N
1670268355.4,286047000.5,N
1670268375.3,286046999.7,N
1670268395.1,286046996.5,N
1670268415.8,286046997.1,N
1670268435.7,286046999.2,N
1670268455.5,286046999.5,N
1670268475.4,286046996.8,N
1670268495.2,286046999.5,N
1670268515.0,286046998.8,N
1670268515.9,286046998.8,N
1670268535.8,286046999.0,N
1670268555.6,286046999.4,N
1670268575.4,286046999.2,N
1670268595.3,286046998.6,N
1670268615.1,286046998.1,N
1670268635.9,286046998.4,N
1670268655.7,286046998.8,N
1670268675.5,286046998.2,N
1670268695.4,286046998.1,N
1670268715.2,286046999.0,N
1670268735.1,286046999.0,N
1670268736.0,286046999.0,N
1670268755.8,286046998.8,N
1670268775.6,286046996.7,Y
1670268795.5,286046998.7,P
1670268815.3,286046999.6,P
1670268835.2,286046999.3,N
1670268855.9,286047000.9,N
1670268875.7,286047001.0,N
1670268895.6,286047001.1,N
1670268915.4,286047000.2,N
1670268935.2,286047000.2,N
1670268955.1,286047002.0,N
1670268956.0,286047002.0,N
1670268975.8,286047001.6,N
1670268995.7,286047002.3,N
1670269015.5,286047002.8,N
1670269035.3,286047002.1,N
1670269055.2,286047002.0,N
1670269075.0,286047002.3,N
1670269075.9,286047002.3,N
1670269095.8,286047002.7,N
1670269115.6,286047002.8,N
1670269135.4,286047002.0,N
1670269155.3,286047001.6,N
1670269175.1,286047002.3,N
1670269195.8,286047002.0,N
1670269215.7,286047000.1,N
1670269235.5,286047000.1,N
1670269255.4,286046999.8,N
1670269275.2,286047002.8,N
1670269295.0,286047000.9,N
1670269295.9,286047000.9,N
1670269315.8,286047000.0,N
1670269335.6,286047000.3,N
1670269355.5,286047000.6,N
1670269375.3,286047001.1,N
1670269395.1,286047001.1,N
1670269415.9,286046999.1,N
1670269435.7,286046998.6,N
1670269455.6,286046998.6,N
1670269475.4,286046998.3,N
1670269495.2,286046998.4,N
1670269515.1,286046998.5,N
1670269516.0,286046998.5,N
1670269535.8,286047000.8,N
1670269555.6,286047000.8,N
1670269575.5,286047000.5,N
1670269595.3,286047000.9,N
1670269615.2,286047000.3,N
1670269635.0,286047002.1,N
1670269635.9,286047002.1,N
1670269655.8,286047002.2,N
1670269675.6,286047000.4,N
1670269695.4,286047000.6,N
1670269715.3,286046999.7,N
1670269735.1,286047002.3,N
1670269755.8,286047002.1,N
1670269775.7,286047002.0,N
1670269795.5,286047000.5,N
1670269815.4,286047000.2,N
1670269835.2,286046999.7,N
1670269855.0,286047000.2,N
1670269855.9,286047000.2,N
1670269875.8,286047001.6,N
1670269895.6,286046999.9,N
1670269915.5,286047002.1,N
1670269935.3,286047001.5,N
1670269955.1,286047003.9,Y
1670269975.9,286047002.5,P
1670269995.7,286047002.7,N
1670270015.6,286047002.6,N
1670270035.4,286047002.6,N
1670270055.2,286047002.5,N
1670270075.1,286047000.7,N
1670270076.0,286047000.7,N
1670270095.8,286047000.8,N
1670270115.7,286046998.1,N
1670270135.5,286046998.6,N
1670270155.3,286046998.8,N
1670270175.2,286047000.4,N
1670270195.0,286047000.6,N
1670270195.9,286047000.6,N
1670270215.8,286047000.8,N
1670270235.6,286047001.0,N
1670270255.5,286047000.8,N
1670270275.3,286046999.8,N
1670270295.1,286047002.3,N
1670270315.9,286047002.2,N
1670270335.7,286047002.7,N
1670270355.5,286047002.2,N
1670270375.4,286047002.6,N
1670270395.2,286047004.4,Y
